Location: *
(37.5724°S, 58.0067°E)
Time: 10:57:51
(UTC+00:00)

Lacrosse 5 - Pass Details

Date: 26 January 2021
Orbit: 715 x 724 km, 57.0° (Epoch: 22 February)

Event Time Altitude Azimuth Distance (km) Brightness Sun altitude
Rises 23:59:49 0° 214° (SSW) 3,170 5.2 -13.7°
Reaches altitude 10° 00:03:07 10° 192° (SSW) 2,245 4.7 -13.2°
Maximum altitude 00:06:21 16° 153° (SSE) 1,839 4.9 -12.7°
Drops below altitude 10° 00:09:35 10° 114° (ESE) 2,235 5.8 -12.1°
Sets 00:12:51 0° 93° (E) 3,150 6.3 -11.6°
